Regional Weather Roundup
Issued by NWS

Home | Current Version | Previous Version | Text Only | Print | Product List | Glossary On
Versions: 1 2 3 4 5 6 7 8 9 10 11 12 13 14 15 16 17 18 19 20 21 22 23 24 25 26 27
000
ASUS45 KPSR 260210
RWRAZ

ARIZONA HOURLY REGIONAL WEATHER ROUNDUP
NATIONAL WEATHER SERVICE PHOENIX AZ
700 PM MST TUE APR 25 2017

NOTE: FAIR INDICATES FEW OR NO CLOUDS BELOW 12,000 FEET WITH NO
SIGNIFICANT WEATHER AND/OR OBSTRUCTIONS TO VISIBILITY.

AZZ001>003-036-260300-
NORTHWEST ARIZONA

CITY           SKY/WX    TMP DP  RH WIND       PRES   REMARKS
BULLHEAD CITY  CLEAR     82  19   9 NW10      29.69R
KINGMAN        CLEAR     66  20  17 N15       29.83R
$$

AZZ004>008-015-016-018-260300-
NORTH CENTRAL ARIZONA

CITY           SKY/WX    TMP DP  RH WIND       PRES   REMARKS
GRAND CANYON   PTCLDY    49  20  31 NW15G22   29.88R
WILLIAMS       CLEAR     50  14  23 NW16      29.89R
PRESCOTT       CLEAR     60  13  15 NW16      29.84R
FLAGSTAFF      CLEAR     48  13  24 VRB6G23   29.89R
PAYSON         CLEAR     63   7  11 NW13G25   29.83R
PAGE           CLEAR     59  20  22 W8G17     29.80R
$$

AZZ009>014-017-260300-
NORTHEAST ARIZONA

CITY           SKY/WX    TMP DP  RH WIND       PRES   REMARKS
WINSLOW        CLEAR     62  14  15 NW22G30   29.78R
SAINT JOHNS    CLOUDY    56  24  29 NW18G25   29.75R
WINDOW ROCK    PTCLDY    45  24  43 N15G24    29.82R
SHOW LOW       MOCLDY    54  27  35 SW16G25   29.83R
$$

AZZ540-542>544-546-548-260300-
GREATER PHOENIX AREA

CITY           SKY/WX    TMP DP  RH WIND       PRES   REMARKS
PHOENIX        MOCLDY    83  14   7 NW26G37   29.63R
BUCKEYE        MOCLDY    81  27  13 W13G22    29.68R
GLENDALE       MOCLDY    82  18   9 SW18      29.67R
LUKE AFB       PTCLDY    82  18   9 W14       29.65R
DEER VALLEY    PTCLDY    80  14   8 W26G36    29.64R
SCOTTSDALE     CLEAR     81  15   8 W13G24    29.67R
MESA-FALCON    PTCLDY   N/A N/A N/A W14       29.65R
MESA-GATEWAY   PTCLDY    81  21  11 W20G29    29.66R
CHANDLER       CLEAR     82  19   9 SW16      29.65R
$$

AZZ539-553-260300-
SOUTHWEST MARICOPA COUNTY AND PINAL COUNTY

CITY           SKY/WX    TMP DP  RH WIND       PRES   REMARKS
CASA GRANDE    MOCLDY    79  32  18 W14       29.68R
GILA BEND      MOCLDY    82  28  13 W17       29.66R
$$

AZZ503-504-507>509-260300-
SOUTHEAST ARIZONA

CITY           SKY/WX    TMP DP  RH WIND       PRES   REMARKS
TUCSON         MOCLDY    76  36  23 NW14G21   29.77R
DAVIS-MONTHAN  MOCLDY    75  36  24 NW15G22   29.75R
RYAN FIELD     CLEAR     75  36  23 W16G22    29.75R
NOGALES        MOCLDY    68  43  40 SW13      29.82R
SIERRA VISTA   PTCLDY    66  39  37 W18G26    29.83S
DOUGLAS        CLEAR     70  36  28 W20G29    29.78R
SAFFORD        CLEAR     72  33  24 NW29G38   29.68R
$$

AZZ532-260300-
SOUTHWEST ARIZONA

CITY           SKY/WX    TMP DP  RH WIND       PRES   REMARKS
YUMA           MOCLDY    80  42  25 W9        29.70R
$$

CAZ041-043-047-048-061-525>527-560>570-260300-
SOUTHERN CALIFORNIA

CITY           SKY/WX    TMP DP  RH WIND       PRES   REMARKS
DOWNTOWN L.A.  PTCLDY    76  34  21 NW8       29.82F
L.A. AIRPORT   MOCLDY    64  52  64 W12       29.86R
SAN DIEGO      MOCLDY    65  56  72 NW9       29.91S
BURBANK        PTCLDY    71  32  23 NW9G22    29.85R
ONTARIO        CLOUDY    68  43  40 SW9       29.85S
RIVERSIDE      MOCLDY    69  42  37 W6        29.85F
PALM SPRINGS   PTCLDY    79  44  28 NW15G25   29.76R
EL CENTRO NAS  MOCLDY    79  43  27 SW13      29.74R
IMPERIAL       MOCLDY    77  48  35 W10       29.71R
BLYTHE         MOCLDY    84  29  13 NW10      29.70R
NEEDLES        CLEAR     85  13   7 NW16G23   29.70R
$$

NVZ020-UTZ003-260300-
SOUTHERN NEVADA-UTAH

CITY           SKY/WX    TMP DP  RH WIND       PRES   REMARKS
LAS VEGAS      PTCLDY    75  15  10 N15       29.77R
SALT LAKE CITY MOCLDY    50  37  61 CALM      29.90S
$$

NMZ009-TXZ055-260300-
NEW MEXICO-WEST TEXAS

CITY           SKY/WX    TMP DP  RH WIND       PRES   REMARKS
ALBUQUERQUE    CLOUDY    47  38  71 VRB7      29.73R
EL PASO        PTCLDY    77  30  17 W28G41    29.59R
$$


........................KEY........................
SKY/WX - SKY CONDITION/WEATHER
TMP    - TEMPERATURE IN FAHRENHEIT
DP     - DEW POINT IN FAHRENHEIT
RH     - RELATIVE HUMIDITY IN PERCENT
WIND   - DIRECTION AND SPEED IN MILES PER HOUR (MPH)
VRB    - VARIABLE WIND DIRECTION
PRES   - MEAN SEA LEVEL PRESSURE IN INCHES OF MERCURY
         F - FALLING PRESSURE   R - RISING PRESSURE
         S - STEADY PRESSURE
VSB    - VISIBILITY IN MILES
HX     - HEAT INDEX IN FAHRENHEIT
WCI    - WIND CHILL INDEX IN FAHRENHEIT
TC     - TEMPERATURE IN CELSIUS WHICH IS ALSO KNOWN AS
         TEMPERATURE IN CENTIGRADE
AFB    - AIR FORCE BASE
         LUKE AFB IS LUKE AIR FORCE BASE
         DAVIS-MONTHAN IS DAVIS-MONTHAN AIR FORCE BASE
NAS    - NAVAL AIR STATION
         EL CENTRO NAS IS EL CENTRO NAVAL AIR STATION
N/A    - NOT AVAILABLE





USA.gov is the U.S. government's official web portal to all federal, state and local government web resources and services.